Time,TemperatureF,DewpointF,PressureIn,WindDirection,WindDirectionDegrees,WindSpeedMPH,WindSpeedGustMPH,Humidity,HourlyPrecipIn,Conditions,Clouds,dailyrainin,SoftwareType,DateUTC
2014-03-15 00:12:00,46.0,38.0,30.46,NW,315,0.0,0.0,73,0.00,,,0.18,,2014-03-15 07:12:00,
2014-03-15 00:22:00,46.0,38.0,30.45,NNW,337,0.0,0.0,74,0.00,,,0.18,,2014-03-15 07:22:00,
2014-03-15 00:42:00,46.0,39.0,30.46,NNW,337,0.0,0.0,75,0.00,,,0.18,,2014-03-15 07:42:00,
2014-03-15 00:52:00,46.0,39.0,30.45,WNW,292,0.0,0.0,76,0.00,,,0.18,,2014-03-15 07:52:00,
2014-03-15 01:12:00,45.0,38.0,30.44,NNE,22,0.0,0.0,76,0.00,,,0.18,,2014-03-15 08:12:00,
2014-03-15 01:21:00,44.0,37.0,30.44,North,0,0.0,0.0,77,0.00,,,0.18,,2014-03-15 08:21:00,
2014-03-15 01:42:00,44.0,38.0,30.45,South,180,0.0,0.0,79,0.00,,,0.18,,2014-03-15 08:42:00,
2014-03-15 01:52:00,44.0,38.0,30.44,SSW,202,0.0,0.0,79,0.00,,,0.18,,2014-03-15 08:52:00,
2014-03-15 02:12:00,44.0,38.0,30.44,WNW,292,0.0,0.0,79,0.00,,,0.18,,2014-03-15 09:12:00,
2014-03-15 02:22:00,43.0,37.0,30.44,NNW,337,0.0,0.0,80,0.00,,,0.16,,2014-03-15 09:22:00,
2014-03-15 02:43:00,42.0,36.0,30.44,NNW,337,0.0,0.0,80,0.00,,,0.16,,2014-03-15 09:43:00,
2014-03-15 02:53:00,42.0,37.0,30.45,NNW,337,0.0,0.0,81,0.00,,,0.16,,2014-03-15 09:53:00,
2014-03-15 03:12:00,42.0,37.0,30.44,NNW,337,0.0,0.0,82,0.00,,,0.14,,2014-03-15 10:12:00,
2014-03-15 03:23:00,42.0,37.0,30.44,NNW,337,0.0,0.0,82,0.00,,,0.14,,2014-03-15 10:23:00,
2014-03-15 03:42:00,42.0,37.0,30.44,NNW,337,0.0,0.0,82,0.00,,,0.14,,2014-03-15 10:42:00,
2014-03-15 03:53:00,41.0,36.0,30.44,NW,315,0.0,0.0,83,0.00,,,0.10,,2014-03-15 10:53:00,
2014-03-15 04:12:00,41.0,36.0,30.44,NNW,337,0.0,0.0,83,0.00,,,0.10,,2014-03-15 11:12:00,
2014-03-15 04:22:00,40.0,36.0,30.43,NNW,337,0.0,0.0,84,0.00,,,0.08,,2014-03-15 11:22:00,
2014-03-15 04:42:00,40.0,36.0,30.43,NNW,337,0.0,0.0,84,0.00,,,0.08,,2014-03-15 11:42:00,
2014-03-15 04:53:00,40.0,36.0,30.43,NNW,337,0.0,0.0,85,0.00,,,0.06,,2014-03-15 11:53:00,
2014-03-15 05:12:00,40.0,36.0,30.43,NNW,337,0.0,0.0,85,0.00,,,0.04,,2014-03-15 12:12:00,
2014-03-15 05:22:00,40.0,36.0,30.44,SSE,157,0.0,0.0,86,0.00,,,0.04,,2014-03-15 12:22:00,
2014-03-15 05:42:00,41.0,37.0,30.43,SSE,157,0.0,0.0,86,0.00,,,0.04,,2014-03-15 12:42:00,
2014-03-15 05:52:00,41.0,37.0,30.44,North,0,0.0,0.0,86,0.00,,,0.04,,2014-03-15 12:52:00,
2014-03-15 06:11:00,41.0,37.0,30.44,NE,45,0.0,0.0,86,0.00,,,0.04,,2014-03-15 13:11:00,
2014-03-15 06:22:00,42.0,38.0,30.44,North,0,0.0,0.0,86,0.00,,,0.02,,2014-03-15 13:22:00,
2014-03-15 06:42:00,42.0,38.0,30.44,North,0,0.0,0.0,86,0.00,,,0.02,,2014-03-15 13:42:00,
2014-03-15 06:52:00,42.0,38.0,30.43,North,0,0.0,0.0,86,0.00,,,0.02,,2014-03-15 13:52:00,
2014-03-15 07:11:00,42.0,38.0,30.43,NNE,22,0.0,0.0,86,0.00,,,0.02,,2014-03-15 14:11:00,
2014-03-15 07:22:00,42.0,38.0,30.44,North,0,0.0,0.0,86,0.00,,,0.02,,2014-03-15 14:22:00,
2014-03-15 07:42:00,43.0,39.0,30.44,North,0,0.0,0.0,86,0.00,,,0.02,,2014-03-15 14:42:00,
2014-03-15 07:52:00,43.0,39.0,30.44,North,0,0.0,0.0,86,0.00,,,0.02,,2014-03-15 14:52:00,
2014-03-15 08:22:00,43.0,39.0,30.44,North,0,0.0,0.0,86,0.00,,,0.02,,2014-03-15 15:22:00,
2014-03-15 08:43:00,43.0,39.0,30.44,NNW,337,0.0,0.0,85,0.00,,,0.02,,2014-03-15 15:43:00,
2014-03-15 08:53:00,44.0,40.0,30.45,North,0,0.0,0.0,86,0.00,,,0.02,,2014-03-15 15:53:00,
2014-03-15 09:13:00,46.0,42.0,30.44,NNW,337,0.0,0.0,85,0.00,,,0.02,,2014-03-15 16:13:00,
2014-03-15 09:23:00,46.0,41.0,30.44,NNW,337,0.0,0.0,84,0.00,,,0.02,,2014-03-15 16:23:00,
2014-03-15 09:43:00,47.0,42.0,30.45,North,0,0.0,0.0,83,0.00,,,0.02,,2014-03-15 16:43:00,
2014-03-15 09:53:00,48.0,42.0,30.45,North,0,0.0,0.0,81,0.00,,,0.02,,2014-03-15 16:53:00,
2014-03-15 10:12:00,49.0,43.0,30.45,NW,315,0.0,0.0,79,0.00,,,0.02,,2014-03-15 17:12:00,
2014-03-15 10:22:00,51.0,44.0,30.46,North,0,0.0,0.0,78,0.00,,,0.02,,2014-03-15 17:22:00,
2014-03-15 10:42:00,52.0,45.0,30.44,North,0,0.0,0.0,76,0.00,,,0.00,,2014-03-15 17:42:00,
2014-03-15 10:52:00,53.0,46.0,30.44,NNW,337,1.0,1.0,76,0.00,,,0.00,,2014-03-15 17:52:00,
2014-03-15 11:12:00,54.0,46.0,30.45,NNE,22,0.0,0.0,74,0.00,,,0.00,,2014-03-15 18:12:00,
2014-03-15 11:21:00,54.0,46.0,30.45,North,0,2.0,2.0,74,0.00,,,0.00,,2014-03-15 18:21:00,
2014-03-15 11:42:00,56.0,47.0,30.45,North,0,0.0,1.0,73,0.00,,,0.00,,2014-03-15 18:42:00,
2014-03-15 11:52:00,56.0,47.0,30.44,North,0,1.0,1.0,72,0.00,,,0.00,,2014-03-15 18:52:00,
2014-03-15 12:11:00,59.0,49.0,30.44,NNW,337,3.0,3.0,69,0.00,,,0.00,,2014-03-15 19:11:00,
2014-03-15 12:21:00,59.0,48.0,30.45,NNW,337,1.0,1.0,67,0.00,,,0.00,,2014-03-15 19:21:00,
2014-03-15 12:42:00,59.0,48.0,30.45,NNE,22,0.0,1.0,67,0.00,,,0.00,,2014-03-15 19:42:00,
2014-03-15 12:52:00,60.0,49.0,30.44,NNE,22,0.0,0.0,66,0.00,,,0.00,,2014-03-15 19:52:00,
2014-03-15 13:01:00,60.0,49.0,30.44,NNE,22,0.0,0.0,66,0.00,,,0.00,,2014-03-15 20:01:00,
2014-03-15 13:12:00,60.0,49.0,30.44,NNE,22,0.0,0.0,66,0.00,,,0.00,,2014-03-15 20:12:00,
2014-03-15 13:22:00,62.0,50.0,30.44,NNW,337,0.0,0.0,64,0.00,,,0.00,,2014-03-15 20:22:00,
2014-03-15 13:42:00,63.0,50.0,30.43,North,0,1.0,1.0,63,0.00,,,0.00,,2014-03-15 20:42:00,
2014-03-15 14:11:00,66.0,50.0,30.42,North,0,0.0,0.0,56,0.00,,,0.00,,2014-03-15 21:11:00,
2014-03-15 14:22:00,66.0,50.0,30.42,NW,315,0.0,1.0,56,0.00,,,0.00,,2014-03-15 21:22:00,
2014-03-15 14:43:00,66.0,50.0,30.41,NNW,337,0.0,0.0,57,0.00,,,0.00,,2014-03-15 21:43:00,
2014-03-15 16:21:00,69.0,52.0,30.39,NNW,337,1.0,1.0,54,0.00,,,0.00,,2014-03-15 23:21:00,
2014-03-15 16:43:00,69.0,52.0,30.39,NNW,337,1.0,1.0,54,0.00,,,0.00,,2014-03-15 23:43:00,
2014-03-15 16:52:00,68.0,51.0,30.39,North,0,0.0,0.0,55,0.00,,,0.00,,2014-03-15 23:52:00,
2014-03-15 17:11:00,67.0,51.0,30.38,North,0,1.0,2.0,56,0.00,,,0.00,,2014-03-16 00:11:00,
2014-03-15 17:22:00,66.0,51.0,30.37,NNW,337,1.0,1.0,58,0.00,,,0.00,,2014-03-16 00:22:00,
2014-03-15 17:42:00,65.0,50.0,30.37,North,0,0.0,0.0,59,0.00,,,0.00,,2014-03-16 00:42:00,
2014-03-15 17:53:00,66.0,52.0,30.37,NNW,337,0.0,0.0,60,0.00,,,0.00,,2014-03-16 00:53:00,
2014-03-15 18:11:00,66.0,52.0,30.37,NNW,337,0.0,1.0,61,0.00,,,0.00,,2014-03-16 01:11:00,
2014-03-15 18:21:00,66.0,52.0,30.37,North,0,1.0,1.0,61,0.00,,,0.00,,2014-03-16 01:21:00,
2014-03-15 18:42:00,65.0,51.0,30.37,East,90,0.0,0.0,60,0.00,,,0.00,,2014-03-16 01:42:00,
2014-03-15 18:52:00,65.0,51.0,30.38,NW,315,0.0,0.0,61,0.00,,,0.00,,2014-03-16 01:52:00,
2014-03-15 19:11:00,63.0,50.0,30.38,NE,45,0.0,0.0,63,0.00,,,0.00,,2014-03-16 02:11:00,
2014-03-15 19:22:00,61.0,49.0,30.37,North,0,0.0,0.0,65,0.00,,,0.00,,2014-03-16 02:22:00,
2014-03-15 19:42:00,61.0,50.0,30.38,North,0,0.0,0.0,67,0.00,,,0.00,,2014-03-16 02:42:00,
2014-03-15 19:52:00,60.0,49.0,30.39,North,0,1.0,1.0,68,0.00,,,0.00,,2014-03-16 02:52:00,
2014-03-15 20:11:00,60.0,50.0,30.39,SSW,202,0.0,0.0,70,0.00,,,0.00,,2014-03-16 03:11:00,
2014-03-15 20:22:00,59.0,49.0,30.39,SSW,202,0.0,0.0,70,0.00,,,0.00,,2014-03-16 03:22:00,
2014-03-15 20:43:00,59.0,50.0,30.38,SSW,202,0.0,0.0,71,0.00,,,0.00,,2014-03-16 03:43:00,
2014-03-15 20:53:00,59.0,50.0,30.39,NW,315,0.0,0.0,71,0.00,,,0.00,,2014-03-16 03:53:00,
2014-03-15 21:03:00,-999.0,-99.9,30.39,NNW,337,0.0,0.0,72,0.00,,,0.00,,2014-03-16 04:03:00,
2014-03-15 21:13:00,58.0,49.0,30.39,NNW,337,0.0,0.0,72,0.00,,,0.00,,2014-03-16 04:13:00,
2014-03-15 21:23:00,57.0,48.0,30.39,North,0,0.0,0.0,72,0.00,,,0.00,,2014-03-16 04:23:00,
2014-03-15 21:43:00,57.0,48.0,30.40,South,180,0.0,0.0,73,0.00,,,0.00,,2014-03-16 04:43:00,
2014-03-15 21:53:00,57.0,48.0,30.41,South,180,0.0,0.0,73,0.00,,,0.00,,2014-03-16 04:53:00,
2014-03-15 22:12:00,57.0,48.0,30.43,North,0,0.0,0.0,72,0.00,,,0.00,,2014-03-16 05:12:00,
2014-03-15 22:22:00,56.0,47.0,30.42,NNW,337,0.0,0.0,72,0.00,,,0.00,,2014-03-16 05:22:00,
2014-03-15 22:42:00,56.0,47.0,30.42,North,0,0.0,0.0,73,0.00,,,0.00,,2014-03-16 05:42:00,
2014-03-15 22:53:00,55.0,46.0,30.42,NNW,337,0.0,0.0,72,0.00,,,0.00,,2014-03-16 05:53:00,
2014-03-15 23:12:00,55.0,47.0,30.42,North,0,0.0,0.0,74,0.00,,,0.00,,2014-03-16 06:12:00,
2014-03-15 23:22:00,54.0,46.0,30.42,North,0,0.0,0.0,74,0.00,,,0.00,,2014-03-16 06:22:00,
2014-03-15 23:42:00,55.0,47.0,30.43,North,0,0.0,0.0,75,0.00,,,0.00,,2014-03-16 06:42:00,
2014-03-15 23:52:00,55.0,47.0,30.43,NNE,22,0.0,0.0,75,0.00,,,0.00,,2014-03-16 06:52:00,